Location: Seven Kings
(51.5667°N, 0.1000°E)
Time: 03:43:10
(UTC+00:00)

Cosmos 2058 - Pass Details

Date: 29 October 2020
Orbit: 562 x 584 km, 82.5° (Epoch: 24 November)

Event Time Altitude Azimuth Distance (km) Brightness Sun altitude
Rises 17:27:47 0° 356° (N) 2,769 6.3 -8.4°
Reaches altitude 10° 17:30:11 10° 8° (N) 1,867 5.3 -8.7°
Maximum altitude 17:33:49 30° 70° (ENE) 1,039 3.7 -9.3°
Drops below altitude 10° 17:37:26 10° 132° (SE) 1,856 5.2 -9.9°
Sets 17:39:48 0° 144° (SE) 2,750 6.1 -10.2°
